When you browse on this site, cookies collect data to enhance your experience and personalize the content and advertising you see.
Visit our Privacy Policy to learn more. By continuing to use the site, you agree to this use of cookies and data.
  • In United Kingdom
  • List of Countries
  • For 7 days
  • Water Temperature
  • Satellite Maps
  • Weather Map
  • Weather Widgets
  • user-avatar
    Login

    Hourly Weather Sharan

    Today, 19 May, Sunday

    Time Temperature Precipitation Wind Pressure Humidity
    00:00 +19°C° 0 mm 2 mps 589 mmHg 27%
    01:00 +18°C° 0 mm 2 mps 588 mmHg 29%
    02:00 +17°C° 0 mm 2 mps 588 mmHg 31%
    03:00 +17°C° 0 mm 2 mps 588 mmHg 33%
    04:00 +16°C° 0 mm 2 mps 587 mmHg 35%
    05:00 +16°C° 0 mm 2 mps 587 mmHg 40%
    06:00 +16°C° 0 mm 2 mps 587 mmHg 37%
    07:00 +18°C° 0 mm 1 mps 588 mmHg 34%
    08:00 +19°C° 0 mm 1 mps 588 mmHg 30%
    09:00 +19°C° 0 mm 3 mps 589 mmHg 28%
    10:00 +20°C° 0 mm 4 mps 589 mmHg 25%
    11:00 +21°C° 0 mm 5 mps 589 mmHg 24%
    12:00 +22°C° 0 mm 6 mps 590 mmHg 23%
    13:00 +22°C° 0 mm 7 mps 590 mmHg 23%
    14:00 +23°C° 0 mm 7 mps 590 mmHg 22%
    15:00 +23°C° 0 mm 7 mps 590 mmHg 21%
    16:00 +23°C° 0 mm 8 mps 590 mmHg 21%
    17:00 +24°C° 0 mm 8 mps 590 mmHg 20%
    18:00 +23°C° 0 mm 6 mps 590 mmHg 22%
    19:00 +22°C° 0 mm 5 mps 589 mmHg 24%
    20:00 +21°C° 0 mm 4 mps 589 mmHg 26%
    21:00 +20°C° 0.1 mm 3 mps 589 mmHg 29%
    22:00 +20°C° 0.1 mm 3 mps 589 mmHg 32%
    23:00 +19°C° 0.1 mm 2 mps 589 mmHg 36%

    Tomorrow, 20 May, Monday

    Time Temperature Precipitation Wind Pressure Humidity
    00:00 +18°C° 0 mm 2 mps 589 mmHg 39%
    01:00 +17°C° 0 mm 2 mps 589 mmHg 42%
    02:00 +17°C° 0 mm 2 mps 589 mmHg 46%
    03:00 +16°C° 0 mm 1 mps 589 mmHg 47%
    04:00 +16°C° 0 mm 1 mps 588 mmHg 49%
    05:00 +15°C° 0 mm 1 mps 588 mmHg 50%
    06:00 +16°C° 0 mm 1 mps 589 mmHg 46%
    07:00 +18°C° 0 mm 1 mps 590 mmHg 42%
    08:00 +19°C° 0 mm 1 mps 590 mmHg 38%
    09:00 +19°C° 0 mm 2 mps 591 mmHg 34%
    10:00 +20°C° 0 mm 2 mps 591 mmHg 29%
    11:00 +21°C° 0 mm 2 mps 592 mmHg 25%
    12:00 +22°C° 0 mm 3 mps 592 mmHg 22%
    13:00 +23°C° 0 mm 4 mps 592 mmHg 19%
    14:00 +25°C° 0 mm 4 mps 592 mmHg 16%
    15:00 +25°C° 0 mm 4 mps 592 mmHg 14%
    16:00 +26°C° 0 mm 5 mps 591 mmHg 13%
    17:00 +26°C° 0 mm 5 mps 591 mmHg 11%
    18:00 +25°C° 0 mm 4 mps 591 mmHg 15%
    19:00 +24°C° 0 mm 3 mps 591 mmHg 18%
    20:00 +22°C° 0 mm 3 mps 591 mmHg 21%
    21:00 +22°C° 0 mm 3 mps 591 mmHg 26%
    22:00 +21°C° 0 mm 3 mps 591 mmHg 30%
    23:00 +20°C° 0 mm 3 mps 591 mmHg 35%

    Day after tomorrow, 21 May, Tuesday

    Time Temperature Precipitation Wind Pressure Humidity
    00:00 +19°C° 0 mm 2 mps 590 mmHg 39%
    01:00 +19°C° 0 mm 2 mps 590 mmHg 43%
    02:00 +18°C° 0 mm 2 mps 589 mmHg 47%
    03:00 +18°C° 0 mm 1 mps 589 mmHg 48%
    04:00 +18°C° 0 mm 1 mps 589 mmHg 50%
    05:00 +16°C° 0 mm 1 mps 588 mmHg 52%
    06:00 +16°C° 0 mm 0 mps 589 mmHg 49%
    07:00 +17°C° 0 mm 0 mps 589 mmHg 46%
    08:00 +17°C° 0 mm 0 mps 590 mmHg 43%
    09:00 +21°C° 0 mm 1 mps 590 mmHg 37%
    10:00 +21°C° 0 mm 2 mps 591 mmHg 30%
    11:00 +23°C° 0 mm 2 mps 591 mmHg 24%
    12:00 +24°C° 0 mm 3 mps 591 mmHg 21%
    13:00 +25°C° 0 mm 3 mps 591 mmHg 18%
    14:00 +26°C° 0 mm 4 mps 591 mmHg 16%
    15:00 +26°C° 0 mm 4 mps 591 mmHg 17%
    16:00 +26°C° 0 mm 5 mps 590 mmHg 19%
    17:00 +25°C° 0 mm 5 mps 590 mmHg 21%
    18:00 +23°C° 0 mm 5 mps 590 mmHg 27%
    19:00 +22°C° 0 mm 4 mps 589 mmHg 34%
    20:00 +20°C° 0 mm 4 mps 589 mmHg 41%
    21:00 +20°C° 0 mm 4 mps 589 mmHg 43%
    22:00 +19°C° 0 mm 4 mps 589 mmHg 45%
    23:00 +19°C° 0 mm 3 mps 589 mmHg 46%

    22 May, Wednesday

    Time Temperature Precipitation Wind Pressure Humidity
    00:00 +19°C° 0 mm 3 mps 589 mmHg 47%
    01:00 +18°C° 0 mm 2 mps 588 mmHg 47%
    02:00 +18°C° 0 mm 2 mps 588 mmHg 47%
    03:00 +18°C° 0 mm 2 mps 588 mmHg 49%
    04:00 +18°C° 0 mm 1 mps 587 mmHg 50%
    05:00 +18°C° 0 mm 1 mps 587 mmHg 51%
    06:00 +17°C° 0 mm 2 mps 587 mmHg 47%
    07:00 +18°C° 0 mm 2 mps 588 mmHg 44%
    08:00 +18°C° 0 mm 2 mps 588 mmHg 40%
    09:00 +19°C° 0 mm 2 mps 589 mmHg 36%
    10:00 +20°C° 0 mm 2 mps 589 mmHg 33%
    11:00 +23°C° 0 mm 2 mps 589 mmHg 29%
    12:00 +23°C° 0 mm 1 mps 589 mmHg 27%
    13:00 +24°C° 0 mm 1 mps 589 mmHg 26%
    14:00 +24°C° 0 mm 1 mps 589 mmHg 25%
    15:00 +24°C° 0.1 mm 2 mps 588 mmHg 25%
    16:00 +24°C° 0.1 mm 3 mps 588 mmHg 26%
    17:00 +23°C° 0.1 mm 4 mps 588 mmHg 27%
    18:00 +22°C° 1.1 mm 3 mps 588 mmHg 35%
    19:00 +20°C° 1.1 mm 3 mps 587 mmHg 43%
    20:00 +19°C° 1.1 mm 3 mps 587 mmHg 50%
    21:00 +18°C° 0.8 mm 3 mps 587 mmHg 52%
    22:00 +18°C° 0.8 mm 3 mps 587 mmHg 54%
    23:00 +18°C° 0.8 mm 3 mps 587 mmHg 56%

    23 May, Thursday

    Time Temperature Precipitation Wind Pressure Humidity
    00:00 +17°C° 0.8 mm 3 mps 587 mmHg 57%
    01:00 +17°C° 0.8 mm 3 mps 586 mmHg 57%
    02:00 +17°C° 0.8 mm 3 mps 586 mmHg 58%
    03:00 +16°C° 0.5 mm 3 mps 586 mmHg 59%
    04:00 +16°C° 0.5 mm 3 mps 585 mmHg 59%
    05:00 +16°C° 0.5 mm 2 mps 585 mmHg 60%
    06:00 +16°C° 0.3 mm 2 mps 586 mmHg 57%
    07:00 +17°C° 0.3 mm 2 mps 586 mmHg 55%
    08:00 +18°C° 0.3 mm 1 mps 587 mmHg 52%
    09:00 +18°C° 0.2 mm 2 mps 587 mmHg 48%
    10:00 +20°C° 0.2 mm 3 mps 588 mmHg 43%
    11:00 +21°C° 0.2 mm 4 mps 588 mmHg 39%
    12:00 +22°C° 0.1 mm 5 mps 588 mmHg 36%
    13:00 +23°C° 0.1 mm 6 mps 588 mmHg 33%
    14:00 +24°C° 0.1 mm 8 mps 588 mmHg 31%
    15:00 +24°C° 0 mm 9 mps 588 mmHg 31%
    16:00 +23°C° 0 mm 9 mps 588 mmHg 32%
    17:00 +23°C° 0 mm 10 mps 588 mmHg 32%
    18:00 +23°C° 0 mm 10 mps 588 mmHg 33%
    19:00 +22°C° 0 mm 9 mps 588 mmHg 34%
    20:00 +21°C° 0 mm 9 mps 588 mmHg 36%
    21:00 +21°C° 0 mm 8 mps 588 mmHg 37%
    22:00 +20°C° 0 mm 7 mps 588 mmHg 39%
    23:00 +20°C° 0 mm 6 mps 588 mmHg 40%

    24 May, Friday

    Time Temperature Precipitation Wind Pressure Humidity
    00:00 +19°C° 0 mm 4 mps 588 mmHg 43%
    01:00 +18°C° 0 mm 3 mps 587 mmHg 46%
    02:00 +17°C° 0 mm 2 mps 587 mmHg 49%
    03:00 +17°C° 0 mm 2 mps 586 mmHg 51%
    04:00 +16°C° 0 mm 2 mps 586 mmHg 53%
    05:00 +16°C° 0 mm 1 mps 586 mmHg 54%
    06:00 +16°C° 0 mm 1 mps 586 mmHg 51%
    07:00 +18°C° 0 mm 1 mps 587 mmHg 47%
    08:00 +19°C° 0 mm 1 mps 587 mmHg 44%
    09:00 +19°C° 0 mm 2 mps 588 mmHg 39%
    10:00 +21°C° 0 mm 3 mps 589 mmHg 33%
    11:00 +22°C° 0 mm 4 mps 589 mmHg 28%
    12:00 +23°C° 0 mm 6 mps 589 mmHg 25%
    13:00 +24°C° 0 mm 7 mps 589 mmHg 21%
    14:00 +26°C° 0 mm 8 mps 589 mmHg 18%
    15:00 +26°C° 0 mm 9 mps 589 mmHg 18%
    16:00 +26°C° 0 mm 10 mps 588 mmHg 18%
    17:00 +26°C° 0 mm 11 mps 588 mmHg 18%
    18:00 +24°C° 0 mm 11 mps 588 mmHg 19%
    19:00 +23°C° 0 mm 10 mps 588 mmHg 20%
    20:00 +22°C° 0 mm 10 mps 588 mmHg 20%
    21:00 +21°C° 0 mm 8 mps 588 mmHg 24%
    22:00 +20°C° 0 mm 6 mps 588 mmHg 28%
    23:00 +19°C° 0 mm 4 mps 588 mmHg 32%
    Show more